Follow iAlert.com on twitter @ialertcom
Search For Active Alerts in Your Area  
  Hi Guest:  [ Sign-up / Services ] [ Login ]

Current weather by "City, St" or "zip code"  
 

Advertise Here

Current Conditions: New Orleans, New Orleans Lakefront Airport, LA

Mostly Cloudy


82.0 F

Last Updated on Jun 18 2018, 7:53 am CDT
Humidity: 88%
Wind Speed: SE 8.1 mph
Barometer 30.11 in
Dewpoint: 78.1 F
Visibility: 7.00 mi
Precip: --
Heat Index: 91 F
Wind Chill: NA
Current conditions at:

New Orleans, New Orleans Lakefront Airport, LA (KNEW)

Lat: 30.04 Lon: 90.028

Local Radar Image active severe weather and emergency alerts image image weather storm and storm spotter reports image weather observation monitoring service image
Local
Radar
Active
Alerts
Storm Reports Obs
Monitoring

iAlert Weather and Emergency Alert Notification Services:


ialert severe weather and emergency alerts by text message and email ialert daily weather forecast by email and text message service ialert real-time weather-observation monitoring and alert notification service ialert storm report monitoring alert notification

Observation History for New Orleans, New Orleans Lakefront Airport, LA


Time Wind
(mph)
Vis
(mi)
Weather Precip (in) Temperature (F) Relative
Humidity
Wind
Chill
(°F)
Heat
Index
(°F)
Pressure
Air Dwpt altimeter
(in)
sea level
(mb)
7:53 am CDT SE 8.1 7.00 Mostly Cloudy -- 82.0 78.1 88% NA 91 30.11 1018.8
6:53 am CDT SE 9.2 7.00 Fair -- 81.0 78.1 91% NA 89 30.07 1017.6
5:53 am CDT SE 8.1 8.00 Fair -- 81.0 78.1 91% NA 89 30.06 1017.3
4:53 am CDT SE 9.2 8.00 Fair -- 81.0 78.1 91% NA 89 30.05 1017.0
3:53 am CDT SE 8.1 6.00 Fog/Mist -- 81.0 78.1 91% NA 89 30.04 1016.7
2:53 am CDT SE 9.2 7.00 Partly Cloudy -- 81.0 78.1 91% NA 89 30.05 1016.7
1:53 am CDT SE 10.4 7.00 Fair -- 82.0 77.0 85% NA 90 30.06 1017.3
12:53 am CDT SE 10.4 8.00 Fair -- 83.0 77.0 82% NA 92 30.07 1017.4
11:53 pm CDT SE 11.5 8.00 Fair -- 83.0 77.0 82% NA 92 30.08 1017.9
10:53 pm CDT E 6.9 7.00 A Few Clouds -- 82.0 75.0 79% NA 89 30.10 1018.4
9:53 pm CDT E 4.6 7.00 Fair -- 81.0 73.0 77% NA 86 30.08 1018.0
8:53 pm CDT E 4.6 8.00 Fair -- 82.0 72.0 72% NA 87 30.07 1017.7
7:53 pm CDT S 9.2 8.00 Partly Cloudy -- 82.0 72.0 72% NA 87 30.07 1017.5
6:53 pm CDT S 12.7 8.00 Mostly Cloudy -- 83.0 72.0 70% NA 88 30.06 1017.2
5:53 pm CDT SE 12.7 G 23.0 9.00 Mostly Cloudy -- 87.0 70.0 57% NA 92 30.04 1016.7
4:53 pm CDT SE 18.4 10.00 Fair -- 88.0 69.1 54% NA 92 30.06 1017.2
3:53 pm CDT SE 17.3 G 24.2 9.00 Mostly Cloudy -- 89.0 70.0 53% NA 94 30.06 1017.2
2:53 pm CDT SE 13.8 8.00 Overcast -- 88.0 71.1 57% NA 94 30.07 1017.5
1:53 pm CDT SE 19.6 G 27.6 9.00 Partly Cloudy -- 89.0 69.1 52% NA 94 30.06 1017.3
12:53 pm CDT SE 15.0 9.00 Mostly Cloudy -- 87.0 71.1 59% NA 93 30.08 1017.8
11:53 am CDT SE 20.7 9.00 A Few Clouds and Breezy -- 86.0 71.1 61% NA 92 30.08 1018.0
10:53 am CDT SE 13.8 G 24.2 8.00 Fair -- 85.0 71.1 63% NA 90 30.09 1018.2
9:53 am CDT SE 20.7 8.00 A Few Clouds and Breezy -- 85.0 73.0 68% NA 92 30.08 1017.9
8:53 am CDT SE 15.0 8.00 Fair -- 85.0 73.9 70% NA 93 30.07 1017.7

Regional Weather Observation


New Orleans, New Orleans International Airport, LA (KMSY)

Light Rain Fog/Mist
83.0 F

Hammond, Hammond Municipal Airport, LA (KHDC)

Partly Cloudy
79.0 F

New Orleans Naval Air Station - Alvin Callender Field, LA (KNBG)

Fog/Mist
81.0 F

Bogalusa, George R Carr Memorial Air Field, LA (KBXA)

Fair
79.0 F

Bay St. Louis, Stennis International Airport, MS (KHSA)

Mostly Cloudy
82.0 F

Houma-Terrebonne Airport, LA (KHUM)

Drizzle Fog/Mist
73.0 F

Advertise Here